Weather History for Memphis, TN

Change the Weather History Date:

Saturday, February 2, 2013

  Actual Average Record
Temperature  
Mean Temperature 42 °F 43 °F  
Max Temperature 52 °F 52 °F 74 °F (1974)
Min Temperature 31 °F 34 °F -11 °F (1951)
Degree Days  
Heating Degree Days 23 22  
Month to date heating degree days 58 45  
Since 1 July heating degree days 1709 1947  
Cooling Degree Days 0 0  
Month to date cooling degree days 0 0  
Year to date cooling degree days 9 1  
Moisture  
Dew Point 27 °F    
Average Humidity 60    
Maximum Humidity 79    
Minimum Humidity 41    
Precipitation  
Precipitation 0.01 in 0.15 in 2.47 in (1939)
Month to date precipitation 0.01 0.31  
Year to date precipitation 9.73 4.29  
Snow  
Snow 0.00 in 0.00 in 2.70 in (1880)
Month to date snowfall 0.0 0.1  
Since 1 July snowfall 0.9 2.2  
Snow Depth 0.00 in    
Sea Level Pressure  
Sea Level Pressure 30.21 in    
Wind  
Wind Speed 4 mph (SW)    
Max Wind Speed 13 mph    
Max Gust Speed 16 mph    
Visibility 10 miles    
Events Rain    
T = Trace of Precipitation, MM = Missing Value Source: NWS Daily Summary

Daily Weather History Graph

Daily Weather History Graph

Search for Another Location

Airport:

Trip Planner

Search our weather history database for the weather conditions in past years. The results will help you decide how hot, cold, wet, or windy it might be!

Date:

Astronomy

Feb. 02, 2013 Rise Set
Actual Time 6:57 AM CST 5:29 PM CST
Civil Twilight 6:31 AM CST 5:56 PM CST
Nautical Twilight 6:01 AM CST 6:26 PM CST
Astronomical Twilight 5:31 AM CST 6:56 PM CST
Moon No Moon Rise 10:26 AM CST (2/2)
Length of Visible Light 11h 25m
Length of Day
10h 32m
Waning Gibbous, 59% of the Moon is Illuminated
Feb 2
Waning Gibbous
Feb 3
Last Quarter
Feb 10
New
Feb 17
First Quarter
Feb 25
Full

Hourly Weather History & Observations

Time (CST) Temp. Windchill Dew Point Humidity Pressure Visibility Wind Dir Wind Speed Gust Speed Precip Events Conditions
12:54 AM 30.9 °F 24.3 °F 12.9 °F 47% 30.28 in 10.0 mi SE 6.9 mph - N/A   Clear
1:54 AM 30.9 °F 25.2 °F 14.0 °F 50% 30.26 in 10.0 mi SSE 5.8 mph - N/A   Partly Cloudy
2:54 AM 32.0 °F 26.4 °F 14.0 °F 48% 30.23 in 10.0 mi Variable 5.8 mph - N/A   Mostly Cloudy
3:54 AM 33.1 °F 30.0 °F 15.1 °F 48% 30.23 in 10.0 mi SSE 3.5 mph - N/A   Mostly Cloudy
4:54 AM 33.1 °F 30.0 °F 19.9 °F 59% 30.26 in 10.0 mi WNW 3.5 mph - 0.01 in Rain Light Rain
5:54 AM 33.1 °F - 23.0 °F 66% 30.25 in 10.0 mi Calm Calm - 0.00 in   Overcast
6:54 AM 34.0 °F - 24.1 °F 67% 30.26 in 10.0 mi Calm Calm - 0.00 in   Overcast
7:54 AM 34.0 °F 29.8 °F 26.1 °F 73% 30.26 in 10.0 mi South 4.6 mph - 0.00 in   Mostly Cloudy
8:54 AM 34.0 °F 29.8 °F 27.0 °F 75% 30.25 in 10.0 mi South 4.6 mph - N/A   Mostly Cloudy
9:54 AM 37.0 °F 32.4 °F 27.0 °F 67% 30.24 in 10.0 mi SSW 5.8 mph - N/A   Mostly Cloudy
10:54 AM 41.0 °F 38.0 °F 28.0 °F 60% 30.22 in 10.0 mi WSW 4.6 mph - N/A   Mostly Cloudy
11:54 AM 46.0 °F 42.5 °F 30.0 °F 54% 30.20 in 10.0 mi West 6.9 mph 16.1 mph N/A   Mostly Cloudy
12:54 PM 46.9 °F - 30.9 °F 54% 30.19 in 10.0 mi WNW 9.2 mph - N/A   Mostly Cloudy
1:54 PM 50.0 °F - 30.0 °F 46% 30.18 in 10.0 mi NW 9.2 mph - N/A   Mostly Cloudy
2:54 PM 51.1 °F - 28.9 °F 43% 30.16 in 10.0 mi Variable 5.8 mph - N/A   Scattered Clouds
3:54 PM 51.1 °F - 32.0 °F 48% 30.17 in 10.0 mi NW 11.5 mph - N/A   Clear
4:54 PM 48.9 °F - 33.1 °F 54% 30.17 in 10.0 mi WNW 6.9 mph - N/A   Clear
5:54 PM 46.9 °F - 33.1 °F 59% 30.18 in 10.0 mi Calm Calm - N/A   Clear
6:54 PM 41.0 °F 38.0 °F 32.0 °F 70% 30.20 in 10.0 mi SSW 4.6 mph - N/A   Clear
7:54 PM 39.9 °F - 33.1 °F 77% 30.21 in 10.0 mi Calm Calm - N/A   Partly Cloudy
8:54 PM 37.0 °F - 30.9 °F 79% 30.20 in 10.0 mi Calm Calm - N/A   Clear
9:54 PM 39.9 °F - 32.0 °F 73% 30.20 in 10.0 mi Calm Calm - N/A   Clear
10:54 PM 41.0 °F - 33.1 °F 73% 30.19 in 10.0 mi Calm Calm - N/A   Clear
11:54 PM 37.0 °F - 30.9 °F 79% 30.18 in 10.0 mi Calm Calm - N/A   Clear